Tracking 19794 objects as of 22-Jul-2019
HD Live streaming from Space Station
objects crossing your sky now

THORAD DELTA 1 DEB

Track THORAD DELTA 1 DEB now!
10-day predictions


NORAD ID: 8172
Int'l Code: 1974-089AN
Perigee: 1,410.2 km
Apogee: 1,492.5 km
Inclination: 101.8 °
Period: 114.8 minutes
Semi major axis: 7822 km
RCS: 0.2202 m2 (medium)
Launch date: November 15, 1974
Source: United States (US)
Launch site: AIR FORCE WESTERN TEST RANGE (AFWTR)

Note: This is SATELLITE DEBRIS
aabbcc
Your satellite tracking list
Your tracking list is empty




NASA's NSSDC Master Catalog

Two Line Element Set (TLE):
1  8172U 74089AN  19203.13885514 -.00000036  00000-0  59380-4 0  9995
2  8172 101.7584 168.0172 0052585 251.8754 173.7895 12.54861080 46643
Source of the keplerian elements: AFSPC